Wind_Speed
8 9 10 10 10 9 7 7 6 4 4 4 3 3 6 8 8 8 8 8 10 16 18 14 13 13 10 8 9 9 7 7 8 8 9 11 12 12 12 12 12 12 13 14 14 15 16 16 17 17 17 19 21 20 19 19 21 23 25 25 25 26 26 26 24 22 22 20 18 18 18 17 17 16 16 16 18 19 19 20 20 20 20 21 22 22
6 7 11 8 6 6 5 4 3 2 1 1 2 3 5 7 8 6 6 8 10 17 19 16 16 15 10 10 10 10 8 5 5 6 7 9 11 12 13 14 14 14 15 15 15 15 15 16 17 17 18 21 21 18 18 19 21 23 24 23 24 26 27 26 25 24 23 21 19 17 17 18 18 16 15 15 17 19 20 21 21 21 21 21 22 22
6 8 9 6 5 4 2 2 1 1 1 1 2 3 4 5 5 4 4 6 10 15 17 15 16 15 13 14 13 13 11 8 7 9 10 11 12 12 12 13 14 15 16 16 15 15 15 17 18 17 19 22 20 17 18 19 21 22 23 23 25 26 27 27 27 26 24 22 20 17 16 18 19 16 14 14 16 18 20 21 21 21 21 22 22 22
8 9 7 6 6 4 2 1 0 0 1 3 4 5 6 5 5 5 5 6 9 12 12 12 14 15 15 16 16 16 15 14 14 14 15 16 15 15 16 15 16 17 18 18 16 16 16 18 18 17 20 22 19 17 18 19 21 22 23 24 25 26 27 27 27 27 25 23 21 18 17 18 18 16 14 14 16 18 20 21 21 21 21 22 23 23
10 10 7 5 3 3 2 1 2 2 3 5 5 5 5 4 2 5 8 7 7 10 9 9 11 15 17 17 18 18 17 17 17 17 17 18 18 19 19 19 19 20 20 19 17 17 17 19 18 19 21 20 17 16 17 19 20 21 22 23 24 27 28 28 28 27 26 24 21 19 19 19 17 15 14 14 16 17 19 20 21 21 20 21 23 24
10 9 6 3 2 1 2 1 3 3 4 5 5 5 4 3 2 2 5 6 7 8 9 8 7 10 16 19 18 18 18 18 18 19 20 20 22 23 22 21 21 21 21 19 18 18 19 19 19 20 20 18 16 16 17 19 19 19 20 22 25 27 28 28 28 27 26 24 21 19 19 18 16 14 13 14 15 17 18 19 20 20 19 19 21 23
9 7 4 2 2 1 1 2 3 3 3 3 4 4 3 3 4 3 5 7 7 7 9 9 7 7 14 19 20 20 19 19 20 21 22 23 22 22 20 21 23 22 21 20 19 20 20 20 20 20 19 17 16 16 17 17 17 18 20 23 25 26 27 27 27 26 25 24 22 20 18 16 14 14 13 14 14 16 17 19 19 19 19 18 19 21
8 6 4 3 2 0 1 2 3 3 1 1 2 3 4 5 6 6 6 7 7 6 7 10 12 11 12 16 19 21 21 22 23 22 24 22 15 13 14 16 20 21 20 20 20 20 20 20 20 19 18 16 15 15 15 15 17 19 22 24 25 25 26 26 26 25 24 23 23 21 17 14 12 12 13 14 15 15 17 18 18 19 19 18 17 19
8 7 7 6 5 5 6 6 5 4 2 2 2 4 5 6 8 9 8 8 7 7 7 8 11 10 9 12 15 20 23 24 24 24 24 19 10 10 14 14 15 18 19 19 20 20 20 19 19 18 17 15 14 13 13 15 17 20 22 25 26 26 26 25 24 23 22 22 21 20 17 13 12 11 12 14 15 16 17 18 18 18 18 18 17 18
7 7 7 7 9 10 10 9 7 6 5 4 5 7 7 7 8 9 10 10 7 7 6 6 8 7 6 9 12 16 20 22 23 23 19 12 7 10 14 13 13 15 17 18 19 20 19 18 18 17 15 13 11 11 13 15 18 21 24 26 28 28 27 26 24 22 21 20 19 18 16 14 13 12 12 13 14 15 17 18 18 17 17 17 17 17
6 6 6 7 10 10 9 9 8 8 8 7 7 7 7 7 7 6 8 9 5 3 3 4 5 5 4 6 8 11 14 15 16 15 11 8 8 10 11 11 12 13 15 17 18 19 18 18 17 14 11 9 9 11 13 16 19 22 26 29 30 30 28 26 24 22 20 19 18 18 16 15 14 14 13 13 14 15 16 18 18 18 18 17 16 16
5 4 5 7 8 8 8 9 9 9 9 8 7 8 7 6 4 3 3 4 3 1 1 1 2 4 4 4 6 7 10 10 9 7 6 6 7 7 8 10 10 11 13 15 16 17 17 15 12 9 7 8 9 11 14 17 20 23 27 30 31 30 28 26 24 22 20 19 19 18 17 16 15 15 14 13 13 15 16 17 17 18 18 17 16 15
4 4 5 5 5 8 9 9 9 9 10 7 4 5 4 2 2 1 1 0 2 1 2 2 2 3 5 6 6 5 7 7 5 4 4 4 5 6 7 9 10 11 13 14 14 14 13 10 7 5 6 8 10 13 15 18 20 24 27 29 30 29 28 26 24 22 20 19 19 19 19 18 17 16 15 14 14 14 16 17 17 18 18 18 17 15
3 3 3 5 6 9 11 12 13 12 10 8 4 3 2 2 3 2 3 2 2 1 2 5 4 4 4 4 4 5 7 6 5 3 2 3 5 8 9 10 11 12 12 12 11 10 8 6 4 5 6 9 11 13 15 18 21 24 26 28 29 29 28 27 25 23 22 20 20 19 19 19 18 17 16 15 15 15 15 16 17 18 18 17 17 15
2 1 3 6 6 9 11 12 14 12 8 6 6 5 4 3 2 1 2 1 2 2 3 5 3 2 3 2 6 8 9 7 5 2 2 5 8 9 10 10 11 11 11 10 9 7 6 4 4 5 8 10 12 13 15 18 21 23 26 27 28 28 28 27 25 24 23 22 21 20 20 19 19 18 17 17 16 15 16 16 17 17 17 17 16 16
3 2 3 4 6 8 9 10 13 10 6 5 5 5 5 4 1 1 1 2 3 3 3 3 3 3 3 5 9 9 8 8 4 2 4 7 8 9 9 9 11 10 9 9 8 6 5 5 5 6 9 11 12 13 15 18 20 23 24 26 27 27 27 26 25 23 23 23 22 20 19 19 18 18 18 18 16 16 16 17 17 17 16 16 16 16
2 2 2 2 4 6 8 9 11 10 7 6 6 6 7 5 2 1 1 1 1 1 2 3 3 3 3 6 11 10 7 6 4 4 5 6 7 7 9 10 10 10 9 8 7 6 5 6 6 8 10 11 12 13 15 18 20 22 23 24 26 27 26 26 24 23 22 22 21 20 19 19 18 18 18 18 17 16 16 17 17 16 15 14 14 15
0 2 2 0 3 5 7 7 8 8 7 5 6 8 8 4 2 2 1 1 2 1 2 3 2 4 5 5 8 10 7 5 5 6 6 5 5 7 9 10 10 11 9 8 6 5 7 8 9 9 10 11 12 14 15 18 20 21 22 23 25 26 26 25 24 23 23 22 21 20 18 18 18 18 18 18 17 17 17 17 16 16 14 13 13 14
2 2 4 4 4 6 7 6 6 6 5 5 6 8 7 2 2 4 3 1 1 1 3 3 3 5 7 6 6 7 6 5 6 7 7 5 5 8 10 10 11 11 10 9 8 7 8 10 11 11 11 12 13 14 16 18 20 20 22 23 25 26 26 25 24 24 23 22 22 21 19 18 17 17 17 17 17 18 18 17 16 15 14 13 13 13
4 3 4 5 6 7 7 5 4 4 5 6 6 6 5 3 4 6 3 0 0 0 1 2 3 3 5 7 6 6 6 7 8 8 6 6 6 8 9 9 10 11 10 9 9 9 9 10 11 12 12 13 14 14 17 18 19 20 21 23 25 26 26 26 26 25 24 23 22 21 20 19 17 17 16 16 16 18 19 18 16 15 14 13 12 12
5 5 4 5 6 5 3 3 4 5 6 8 7 6 6 6 6 5 2 1 2 1 2 0 3 4 6 7 7 7 8 8 9 8 8 8 8 8 8 8 9 10 10 10 9 9 10 10 11 12 13 14 14 15 17 18 18 19 21 23 25 26 27 27 27 26 25 24 23 21 20 19 18 17 16 16 16 17 19 19 16 14 14 13 12 12
8 7 6 7 6 4 3 3 4 6 7 8 8 7 7 8 7 4 1 2 3 2 1 1 3 8 9 7 7 9 9 10 10 11 11 10 10 10 9 8 9 10 10 10 10 10 10 10 11 13 13 14 15 16 17 18 18 19 21 23 25 26 27 28 28 27 26 25 23 22 20 19 18 17 15 15 17 17 19 19 16 14 14 13 12 12
11 7 6 8 6 2 2 2 3 5 6 7 7 7 7 8 7 3 1 4 6 5 4 3 3 7 8 6 8 9 9 10 12 13 13 11 11 12 11 9 8 9 9 10 11 11 10 10 11 12 12 13 15 16 17 17 18 20 22 23 25 26 27 28 28 27 26 24 23 21 20 19 18 18 16 16 17 17 18 18 16 14 13 12 11 11
11 7 7 8 5 1 1 1 2 3 4 7 8 8 7 7 7 5 5 8 7 4 4 2 2 4 4 4 7 9 11 13 14 15 15 13 12 12 12 10 9 9 9 10 11 11 10 11 10 11 12 13 15 16 16 17 19 21 22 24 25 26 27 28 27 26 25 24 22 21 20 19 17 17 17 15 16 16 16 16 15 13 11 11 10 10
9 7 7 7 4 2 2 2 3 4 6 8 8 9 8 7 7 7 8 8 5 5 4 2 3 6 6 6 8 10 12 15 16 17 17 15 15 14 12 11 10 11 11 10 10 10 10 10 9 10 11 13 15 16 17 18 20 21 23 24 25 26 27 28 27 25 24 24 22 20 19 18 17 16 17 15 14 15 15 14 14 12 10 10 10 9
8 6 5 4 3 1 2 4 6 8 10 10 10 10 10 8 8 8 8 8 7 6 7 6 8 12 10 8 10 11 13 16 19 20 20 19 17 13 10 10 12 13 11 9 8 8 8 8 9 10 12 14 16 17 18 19 20 22 23 24 25 26 27 27 26 25 24 23 21 19 18 17 17 16 16 14 13 14 14 12 12 11 10 10 9 9
6 5 4 4 3 2 4 6 9 11 12 12 11 11 10 9 9 8 8 9 9 10 12 13 13 15 13 11 13 14 14 16 17 17 16 14 11 9 9 9 11 11 11 10 9 10 10 10 10 12 14 16 17 18 19 20 21 22 23 24 25 26 27 27 26 24 23 22 20 18 17 17 17 17 14 12 12 12 11 10 10 10 10 9 8 8
4 3 3 4 5 7 8 8 9 11 12 12 12 11 11 10 11 11 11 11 11 11 13 13 13 16 17 15 15 15 15 14 13 12 11 8 6 7 8 8 10 10 11 11 12 13 13 12 12 14 15 17 18 19 19 21 22 23 24 24 25 26 26 26 25 24 22 21 19 17 16 17 17 15 12 11 11 10 9 9 9 9 7 6 6 6
3 2 1 3 5 7 9 9 9 11 12 13 13 12 12 12 12 13 13 13 13 14 15 15 17 19 17 14 14 15 14 13 12 12 10 8 7 8 9 10 11 11 11 12 13 14 14 13 14 15 16 18 19 19 20 21 22 23 24 24 25 25 25 25 24 23 21 19 17 15 15 16 15 12 10 9 8 8 8 8 8 6 5 5 5 5
3 3 2 3 5 6 8 9 10 12 14 14 13 11 10 9 8 10 11 11 13 15 15 16 18 17 13 11 13 14 12 12 12 12 11 9 8 10 11 13 12 11 11 11 12 13 14 14 14 15 17 18 19 20 21 22 23 24 24 25 25 24 24 24 23 21 19 17 15 14 14 14 13 10 8 6 6 7 7 7 6 5 4 4 4 4
4 3 2 5 6 6 7 10 12 14 16 17 12 7 5 6 7 9 11 11 11 13 12 13 15 12 10 10 12 13 13 13 12 12 11 10 11 13 14 14 13 12 11 10 11 12 13 13 14 15 17 19 19 20 21 22 23 24 25 24 24 23 23 23 21 19 17 15 13 12 13 13 11 9 7 6 6 6 6 5 5 4 4 4 4 4
6 4 4 6 9 7 9 12 14 16 17 15 8 3 5 10 11 10 10 10 10 10 11 11 12 10 10 11 13 13 13 14 13 13 12 12 13 15 16 14 13 12 11 10 9 10 11 12 13 15 17 19 20 21 21 22 24 24 24 24 23 22 22 21 19 18 16 14 12 11 11 11 10 8 6 6 6 5 5 5 4 4 3 3 3 2
7 6 6 7 8 9 10 12 16 16 12 7 6 8 11 12 11 10 9 9 9 10 11 11 10 11 12 14 15 15 15 14 13 13 13 13 14 15 15 14 13 12 10 8 8 9 10 12 14 16 18 20 20 20 21 22 23 24 24 23 22 21 20 20 18 17 16 13 10 9 9 9 9 8 7 6 6 5 5 5 4 4 3 3 2 2
7 7 8 8 8 10 11 14 16 11 5 7 13 15 12 9 9 9 9 9 9 11 12 12 12 13 14 15 16 17 16 14 13 12 12 13 14 14 14 12 10 9 8 8 9 10 12 14 16 17 19 19 19 19 20 22 23 23 23 22 21 20 19 19 18 16 15 12 9 8 9 9 9 8 7 7 7 6 5 5 5 4 4 3 2 2
6 8 9 10 10 12 14 13 9 4 6 12 13 11 9 8 9 9 8 8 10 11 12 13 13 14 15 16 15 15 16 15 14 13 13 14 15 15 12 9 8 8 8 9 11 13 15 16 17 18 18 18 18 19 20 22 23 23 23 21 19 19 18 18 16 15 14 11 9 8 8 9 9 8 8 8 8 8 8 7 6 6 5 4 3 2
8 8 10 11 11 12 10 6 4 8 15 13 7 7 10 9 9 10 9 8 10 11 11 11 12 13 15 15 13 13 14 14 14 16 16 16 15 14 10 8 8 9 10 12 13 15 16 17 17 17 17 17 17 19 20 21 22 23 22 20 18 18 17 16 15 14 13 11 9 8 8 9 9 8 8 8 9 10 10 9 8 8 8 7 5 4
10 10 11 12 11 9 9 10 12 16 17 10 5 8 10 8 9 11 11 11 10 9 9 11 14 16 16 15 12 13 14 13 14 18 18 15 13 13 11 10 9 9 11 13 14 15 16 16 17 18 17 17 17 19 20 21 22 22 21 19 18 18 16 15 14 14 13 11 10 9 9 9 9 9 9 8 8 10 11 11 10 10 10 9 8 6
11 13 13 12 10 10 11 11 10 10 9 7 7 10 11 9 8 10 14 14 10 9 13 16 17 18 15 12 11 13 14 15 16 19 18 14 12 13 12 11 11 11 11 12 13 14 15 16 17 17 17 17 17 18 20 20 21 21 20 19 18 17 15 13 13 13 13 12 11 10 9 10 10 10 10 8 8 9 10 11 11 10 10 11 10 9
9 13 15 15 15 15 14 10 6 6 7 8 9 12 12 10 9 11 14 13 10 13 18 18 18 17 14 11 11 13 15 17 18 19 17 13 12 12 12 12 12 13 12 12 13 13 14 15 16 16 16 16 17 18 19 20 20 20 19 18 18 17 14 12 11 12 12 13 12 10 9 10 9 9 10 9 8 8 9 10 11 11 11 12 11 10
7 10 13 16 17 18 18 16 14 14 13 12 13 13 11 10 11 10 9 9 13 18 19 18 17 16 15 13 13 14 15 17 18 17 15 13 12 12 13 13 13 13 14 13 13 13 13 14 14 15 15 15 16 17 18 19 19 19 18 18 17 16 13 11 10 11 12 12 12 10 10 10 9 9 9 9 9 9 9 9 10 11 12 12 12 11
9 10 13 15 17 18 19 20 20 21 19 17 15 13 10 10 10 9 8 12 17 18 17 17 17 16 15 15 15 13 13 14 15 15 13 12 12 12 13 13 13 14 15 15 14 13 13 13 13 14 15 15 16 17 17 18 19 18 18 17 16 15 13 11 10 10 11 12 11 11 10 10 9 9 8 8 8 8 9 9 10 10 11 11 12 11
10 10 13 15 16 16 18 20 20 20 18 14 10 10 11 11 11 12 14 16 17 16 16 15 15 16 16 15 14 12 12 14 15 14 13 12 11 11 12 13 14 14 15 14 14 14 14 13 12 13 15 15 16 17 17 18 18 18 17 17 16 14 13 11 10 10 10 11 11 10 10 10 9 8 7 7 6 6 7 8 9 9 10 11 11 11
11 11 13 15 14 12 14 14 12 11 12 11 10 12 14 15 15 16 17 15 15 16 15 13 14 15 16 15 15 15 15 16 16 15 13 12 11 12 14 15 16 16 15 14 14 14 15 14 13 13 14 15 16 17 17 17 18 18 17 16 15 14 12 11 10 9 10 10 11 10 10 9 8 7 6 5 4 4 4 5 6 7 8 9 10 10
14 14 14 15 14 12 12 12 11 13 16 17 17 17 17 17 17 16 15 16 16 15 14 14 15 16 17 17 16 16 17 17 17 17 16 15 15 16 18 19 20 20 18 15 14 14 14 14 14 13 13 14 16 17 17 17 17 17 17 16 15 14 12 11 10 9 9 9 10 10 9 8 8 6 5 4 3 3 4 4 4 5 6 7 8 8
14 14 15 16 16 16 18 19 20 22 22 22 22 20 18 17 17 17 17 17 15 13 14 16 16 16 17 18 17 18 19 19 19 19 19 18 18 20 21 22 23 22 19 16 14 14 13 14 15 14 12 13 15 17 17 17 17 17 17 15 15 14 13 11 10 10 9 8 8 9 8 7 7 6 5 3 2 3 4 4 4 4 4 4 4 5
14 15 16 18 19 20 22 21 21 20 20 21 21 19 17 18 19 19 18 16 14 14 16 18 18 17 17 18 19 20 19 19 20 20 19 19 20 20 21 22 21 20 19 17 15 14 14 14 15 15 13 12 14 16 17 17 17 17 16 15 14 14 13 11 10 10 9 7 7 7 7 6 6 6 5 3 2 2 3 3 2 2 2 1 1 2
16 15 17 18 19 20 20 20 20 20 21 21 21 21 21 22 21 18 16 15 15 16 18 18 18 18 18 19 20 20 20 20 20 20 20 20 20 20 20 20 19 18 17 17 16 15 15 15 15 15 15 13 13 15 16 17 17 17 16 15 14 13 12 11 9 9 9 7 6 5 6 6 5 5 5 3 2 2 2 2 1 0 1 1 1 1
16 16 17 19 20 21 21 21 21 22 23 23 24 24 23 21 18 15 15 16 17 18 18 18 18 19 18 18 18 18 19 19 20 21 22 22 21 21 20 19 18 17 17 17 17 17 17 16 15 14 15 15 13 14 15 17 17 16 16 15 14 13 12 11 9 8 8 8 6 5 5 5 5 5 4 3 2 2 2 1 1 2 3 3 3 4
19 19 19 20 21 22 20 19 19 21 23 23 23 23 21 19 17 16 17 18 17 17 17 17 18 18 16 14 15 18 20 21 21 22 23 22 22 21 20 20 19 18 17 18 18 18 18 16 15 15 15 15 15 15 16 17 17 16 15 15 14 13 12 11 10 9 8 9 8 5 4 4 5 4 4 3 2 3 3 3 3 4 5 5 6 7
20 19 18 20 22 21 19 18 20 22 23 23 22 22 21 20 19 18 18 17 16 16 17 17 18 17 15 15 17 21 23 23 23 23 23 23 22 21 21 21 20 20 19 18 18 19 18 17 16 15 15 15 16 17 17 17 17 16 15 14 14 13 12 11 10 9 9 9 9 6 4 4 5 4 3 3 3 3 4 4 5 6 7 7 8 8
19 18 18 20 23 23 21 21 22 23 24 23 23 23 22 21 20 19 18 17 16 17 17 17 18 18 18 18 21 24 25 25 24 24 23 23 22 22 22 21 21 21 21 20 19 18 17 17 17 16 15 16 17 18 17 17 17 16 15 14 13 12 11 10 10 10 9 9 10 8 5 4 5 5 4 3 3 4 5 6 6 7 8 8 8 8
Wind_Direction
119 128 107 97 98 95 100 103 106 111 118 151 185 203 196 190 176 177 207 223 220 223 228 236 246 253 256 259 263 257 244 230 230 237 238 238 241 247 250 250 255 253 250 261 274 284 292 295 296 298 307 318 320 318 313 313 315 316 316 315 316 317 319 318 315 314 313 313 311 308 307 305 302 297 290 283 279 275 271 267 264 260 258 257 258 258
121 112 85 82 96 94 99 101 106 102 71 155 232 246 208 199 186 173 197 214 213 216 222 234 242 245 249 252 250 244 243 242 246 255 254 253 251 251 255 256 257 254 257 271 283 291 296 298 300 297 306 319 324 320 317 316 314 314 315 316 318 319 319 318 316 315 314 314 311 306 306 307 306 299 289 283 279 275 272 268 265 261 257 255 256 256
106 89 70 56 57 48 59 90 90 86 80 172 217 218 185 185 183 151 161 202 207 214 224 237 240 239 234 230 230 236 241 239 242 252 253 254 256 255 261 265 262 260 268 280 287 293 297 300 301 297 305 319 323 320 319 317 313 312 314 317 320 321 320 319 318 316 315 315 312 305 304 309 308 301 290 284 279 275 272 269 266 262 258 255 253 253
94 73 54 38 35 5 3 87 154 106 138 177 190 186 175 178 190 194 221 230 216 222 241 249 235 232 232 225 222 230 237 233 231 239 243 245 249 251 256 263 262 262 270 279 284 290 296 300 300 300 311 319 320 319 317 313 310 311 313 318 321 322 321 321 319 317 315 315 313 308 305 308 308 300 292 287 281 276 272 270 268 264 259 254 252 250
84 63 49 36 23 343 6 96 176 179 164 161 162 160 156 163 182 207 223 239 240 238 259 264 236 231 234 228 225 230 236 235 231 234 239 242 245 246 249 254 256 260 266 273 280 286 294 297 298 306 314 317 316 316 312 307 308 310 314 319 322 321 321 320 319 317 315 315 314 310 308 308 306 298 291 290 287 282 276 272 270 267 260 254 251 250
78 65 62 46 23 13 24 109 149 148 155 151 157 164 161 180 195 208 224 243 258 255 257 251 229 232 237 237 238 237 238 239 235 235 238 239 241 243 246 250 254 259 266 273 280 286 292 295 300 310 313 312 312 311 306 304 307 312 319 323 323 322 321 319 317 316 315 314 313 311 308 307 304 296 290 288 289 288 283 276 272 269 264 256 252 251
77 72 76 50 24 52 136 129 110 117 151 159 173 191 212 236 234 249 255 248 251 258 251 233 221 237 242 244 247 245 245 246 241 239 239 238 242 247 249 249 251 258 269 278 284 289 293 297 304 309 307 306 308 305 302 305 311 320 327 329 326 323 320 318 317 316 315 314 314 311 307 304 300 295 291 289 288 289 288 282 276 272 267 261 255 253
78 77 71 47 36 83 113 80 67 65 85 182 188 226 263 266 250 253 255 246 246 246 235 226 233 248 250 246 245 245 246 247 245 245 244 240 248 271 271 255 250 257 270 280 286 291 295 299 304 303 301 302 304 303 305 313 322 330 334 333 329 325 322 320 319 317 316 315 313 311 307 303 299 294 292 291 289 290 290 286 281 276 272 268 263 257
84 78 67 54 57 55 41 27 14 8 343 279 270 278 277 271 259 256 255 253 250 238 233 232 234 245 257 248 243 241 242 244 245 246 248 247 255 284 286 275 261 261 272 280 286 291 295 299 299 299 302 303 304 310 320 328 334 338 340 337 333 330 326 324 323 320 317 315 311 311 309 306 303 299 295 292 290 291 292 289 286 281 276 272 268 261
87 75 66 52 48 42 32 19 1 352 334 298 294 294 285 280 275 269 265 260 249 236 245 248 234 243 276 270 255 245 244 250 251 252 260 266 266 276 286 288 276 270 274 280 285 291 295 297 299 304 308 308 317 331 337 339 342 344 343 340 338 335 332 330 328 323 318 315 312 312 311 309 308 305 302 296 292 292 293 292 290 285 280 274 269 264
98 85 64 47 44 33 22 14 2 352 338 312 297 294 283 280 284 279 262 246 233 245 262 252 239 247 284 302 286 261 259 266 263 267 285 290 276 281 291 288 279 277 277 278 284 290 294 299 306 313 316 323 341 347 345 345 346 346 345 343 342 339 336 334 331 326 320 316 315 313 312 311 310 307 304 301 296 295 294 294 292 287 283 276 270 266
114 94 54 46 41 25 14 6 357 350 343 322 294 288 282 279 282 275 242 204 194 305 321 235 243 240 242 296 311 277 264 272 270 274 287 284 285 293 293 288 281 277 275 278 285 291 298 308 316 323 331 346 356 352 347 345 345 345 345 344 343 340 337 335 332 328 323 319 317 315 313 311 310 307 304 302 301 299 297 296 293 288 283 279 274 268
121 87 53 37 18 10 7 2 2 1 356 346 301 289 296 319 357 314 287 245 234 239 49 7 312 262 253 277 297 266 241 249 249 247 265 289 311 311 304 303 296 285 284 288 293 298 307 313 318 333 352 359 358 352 345 343 344 345 346 345 342 339 337 334 331 328 325 322 319 316 314 312 310 307 304 303 303 302 299 297 294 289 284 280 277 273
123 91 45 24 13 11 9 9 13 9 5 13 20 19 25 62 56 317 284 323 304 275 355 331 306 280 277 273 255 209 193 201 207 213 277 324 328 327 327 326 317 307 304 305 306 309 310 302 305 337 359 360 355 347 341 341 344 346 346 345 341 338 336 334 330 327 324 322 319 317 315 313 311 309 306 305 304 303 301 298 296 292 286 282 280 277
75 57 12 23 26 16 11 16 18 9 2 14 27 36 44 76 87 278 248 234 290 309 326 318 304 277 276 205 180 180 176 175 183 210 318 335 334 337 343 348 344 331 320 316 318 315 300 289 310 342 356 356 350 342 339 342 345 347 347 345 341 338 336 334 330 327 324 321 318 317 316 314 312 311 309 307 305 304 303 300 297 293 287 283 281 277
76 68 23 22 25 11 3 11 15 12 7 5 14 28 21 16 7 264 257 248 277 318 323 308 291 263 242 188 178 179 181 181 188 262 322 335 338 345 352 1 4 352 334 324 320 311 302 305 325 344 351 350 344 338 339 343 345 347 348 344 341 338 336 334 331 329 326 322 319 319 317 314 312 311 309 307 306 307 306 303 299 294 288 283 279 276
90 93 74 37 15 359 358 5 7 8 7 3 9 14 6 359 343 312 296 289 2 8 299 300 296 252 211 195 197 198 201 200 215 281 315 330 338 347 350 356 5 3 351 336 323 316 324 336 345 349 349 344 338 337 340 344 345 347 347 343 340 338 337 335 333 331 328 324 322 320 317 315 313 312 310 308 308 309 307 304 299 294 289 282 278 275
24 171 165 343 330 340 354 357 350 352 358 1 5 358 351 347 352 356 353 26 56 40 279 290 278 219 194 198 211 217 228 234 246 278 301 315 328 339 342 349 360 4 1 353 345 342 346 354 356 351 345 339 335 337 341 343 345 346 346 343 341 340 339 337 335 333 329 325 323 320 318 315 313 313 312 309 310 310 307 303 299 294 289 282 276 272
340 248 242 268 300 322 327 324 329 347 360 2 2 355 351 350 342 349 355 10 40 1 305 294 262 231 224 229 235 238 242 242 250 269 284 290 308 330 338 346 354 358 1 356 353 353 351 352 351 346 339 334 335 339 341 343 346 347 346 344 344 344 342 341 339 336 331 326 322 318 317 316 314 313 312 311 312 309 304 301 297 291 286 281 276 271
345 322 288 292 304 310 308 309 332 354 359 1 10 17 25 36 355 343 344 115 108 269 294 305 294 263 255 259 261 255 244 241 250 261 268 275 299 324 334 340 344 350 355 349 344 345 345 343 342 339 333 333 338 342 343 345 348 348 345 344 345 345 343 343 341 337 333 330 325 320 318 318 317 314 312 312 311 306 301 299 295 290 286 280 276 271
353 347 336 327 326 326 335 358 4 355 357 5 15 30 34 28 10 356 353 48 34 145 153 66 290 287 301 295 266 241 234 239 247 253 260 275 299 317 322 324 332 340 344 340 336 334 333 333 332 331 332 337 343 346 346 348 349 346 344 344 344 343 343 343 341 337 334 332 328 323 319 318 317 315 312 310 308 304 298 296 293 288 282 277 272 267
360 352 347 343 345 1 20 17 1 357 5 9 12 15 11 6 8 15 52 26 2 316 215 189 265 290 306 295 250 234 237 244 249 259 268 280 301 314 313 309 317 328 332 330 327 324 323 325 325 328 335 344 348 349 349 349 347 344 342 342 342 342 342 342 340 336 333 331 328 324 321 318 316 315 314 311 308 302 295 293 291 284 280 277 272 269
353 347 339 339 343 349 5 8 358 2 11 6 359 352 346 347 355 19 43 326 326 306 265 228 258 298 311 286 245 241 250 253 256 265 273 283 301 313 311 304 308 317 321 319 317 316 316 316 319 327 338 346 348 349 348 347 344 341 340 340 340 340 341 340 338 335 333 331 328 324 321 319 316 315 316 315 308 299 293 290 288 284 286 285 275 269
349 346 340 341 346 325 294 320 327 343 358 352 345 342 337 330 331 329 312 316 315 280 264 251 246 295 329 311 269 267 273 272 268 270 276 286 299 307 305 300 304 313 316 313 311 309 307 309 319 330 337 343 345 346 346 344 341 338 338 338 338 339 339 337 335 333 332 330 328 324 321 320 319 318 318 315 306 297 292 288 285 285 288 284 272 262
344 345 343 349 12 13 338 314 304 303 316 325 329 334 329 315 311 308 305 311 304 270 266 224 238 287 319 321 304 300 293 283 274 272 275 283 293 297 295 293 302 314 315 309 303 304 308 315 327 335 338 342 345 345 344 342 338 335 335 336 336 337 336 333 332 332 332 331 328 324 321 323 325 323 318 312 301 292 286 281 281 283 282 278 272 262
350 0 360 13 59 49 302 307 311 307 307 314 320 323 320 310 302 300 297 293 285 280 271 252 274 298 306 308 313 311 294 281 277 277 279 283 287 288 283 287 302 312 312 307 306 315 324 330 336 338 340 343 344 344 342 339 335 333 332 333 334 335 333 331 330 332 332 331 328 325 326 329 330 325 316 306 294 285 281 277 275 276 276 276 277 270
4 27 28 34 33 350 318 313 312 310 311 316 319 316 314 309 300 297 290 282 285 289 282 280 293 302 306 317 318 311 301 295 294 295 293 288 282 275 276 293 312 316 311 313 322 332 339 339 340 339 339 340 342 341 340 336 333 330 330 331 332 332 331 330 330 331 331 329 327 327 332 334 331 324 315 301 287 281 279 276 273 274 277 279 279 276
4 26 41 31 8 353 346 333 319 315 314 313 315 315 312 306 299 294 289 290 293 286 283 294 302 299 308 323 322 318 322 321 320 325 321 308 291 284 293 315 332 329 319 319 325 332 337 340 339 336 334 336 338 338 336 333 331 329 329 329 330 330 330 330 330 330 330 328 327 330 336 337 330 322 313 298 285 278 272 270 272 276 282 283 282 279
325 325 347 5 355 345 339 331 323 321 317 313 313 314 310 303 299 296 294 295 290 277 282 298 299 298 312 325 322 326 332 327 326 335 336 327 313 306 314 329 337 332 323 321 323 327 333 335 334 331 330 332 334 334 332 330 329 328 327 327 328 328 329 330 329 329 329 328 328 334 339 337 330 322 311 295 283 274 269 270 274 277 282 283 281 278
283 274 279 321 340 346 337 327 326 325 319 316 319 317 311 307 305 306 306 302 292 286 291 297 295 303 322 323 320 331 331 319 318 323 323 320 313 313 319 326 333 331 324 321 321 323 327 329 328 326 325 327 329 329 328 328 327 327 325 325 326 328 329 329 328 328 328 327 329 336 340 337 332 324 311 293 280 275 274 274 273 271 274 276 275 274
272 269 268 299 319 347 347 332 333 331 321 318 320 315 311 319 315 312 314 310 300 299 301 297 299 314 330 321 322 330 323 310 305 304 308 312 312 316 321 324 328 328 322 318 317 319 322 323 323 321 321 322 324 324 324 325 325 325 325 325 326 329 329 328 328 327 326 326 330 337 338 335 332 326 309 290 283 281 278 274 271 272 277 277 273 272
262 263 275 299 310 329 342 336 333 328 322 322 328 313 311 318 311 308 315 315 309 311 311 306 311 326 330 322 322 324 321 315 304 297 300 306 310 316 320 321 321 321 320 318 316 318 320 319 318 317 317 317 318 319 320 322 323 326 327 326 327 329 329 327 326 325 324 324 327 333 334 332 330 322 303 289 287 285 278 273 275 279 279 272 266 267
258 265 280 294 301 313 325 328 327 326 328 346 353 329 317 315 310 310 322 324 316 315 314 313 324 333 327 321 321 324 327 327 317 307 304 306 310 315 318 317 314 316 322 322 320 321 320 318 316 314 313 314 313 313 315 320 324 327 329 328 328 329 328 326 324 322 320 320 321 324 326 325 325 316 298 286 285 283 280 278 277 277 279 276 270 270
252 259 274 279 287 300 309 315 321 325 337 346 336 327 323 321 315 316 328 333 326 320 317 317 322 326 322 320 323 325 328 329 326 320 313 311 313 316 318 316 309 311 320 319 315 316 317 318 317 314 313 311 309 310 314 320 326 329 331 330 329 328 326 325 323 319 317 315 312 313 315 316 317 310 294 282 276 276 278 278 280 283 284 283 276 278
242 247 263 269 276 289 300 313 324 325 329 334 333 332 336 333 323 320 328 340 337 326 320 317 317 319 320 321 323 324 323 325 327 324 316 315 319 322 320 313 302 302 309 311 312 313 316 319 319 317 315 311 309 312 317 323 327 330 331 330 327 326 326 325 323 319 315 309 301 300 304 307 308 304 292 280 275 276 277 278 282 285 283 282 281 288
240 246 255 265 278 287 295 307 305 304 318 329 338 340 339 335 330 326 326 342 345 332 323 323 324 323 323 323 323 321 320 320 324 326 321 315 319 325 325 314 302 300 304 308 310 313 316 319 321 320 317 314 314 317 320 324 327 329 330 328 326 326 328 327 325 322 317 307 295 292 294 296 300 300 292 283 276 276 279 282 286 287 286 287 287 287
238 246 253 264 276 282 282 285 290 301 314 326 339 341 338 333 332 328 324 336 345 335 327 330 327 323 322 321 319 318 315 310 315 325 326 317 312 319 324 320 311 305 306 308 311 315 318 320 323 323 321 319 318 319 321 324 327 329 329 327 327 329 329 328 327 326 322 311 298 293 289 288 292 295 291 285 278 276 278 283 286 287 286 285 284 286
235 247 255 261 270 276 280 286 293 301 308 312 326 337 333 326 325 319 317 325 334 323 320 324 323 321 321 320 317 313 308 303 309 323 330 324 314 314 320 322 319 314 312 313 316 319 319 320 322 323 323 321 320 320 322 325 328 330 330 329 330 329 327 328 330 330 328 321 311 302 293 287 289 291 290 288 285 281 279 280 281 279 277 275 277 282
238 249 254 255 261 269 273 273 268 272 282 295 314 323 319 311 309 309 308 313 324 325 324 325 325 324 322 320 316 309 303 302 309 319 325 323 319 318 319 323 322 318 316 317 319 319 319 319 321 323 325 324 322 323 324 326 330 332 333 331 330 328 327 330 333 334 331 325 320 316 305 294 290 289 286 283 282 279 275 274 274 272 268 267 268 273
244 250 253 255 259 266 268 267 267 271 281 294 303 307 306 302 304 303 296 305 324 329 327 326 327 327 325 320 310 303 301 305 311 316 318 319 321 319 319 321 320 315 311 313 315 317 318 319 321 325 329 328 325 325 326 328 331 334 335 333 330 328 328 331 337 338 331 323 320 320 310 299 293 292 289 284 280 275 270 266 267 267 266 265 264 265
250 252 258 261 264 266 265 264 268 276 287 296 295 294 300 300 291 281 284 310 327 330 326 325 328 328 327 322 312 306 307 314 319 318 316 318 322 322 323 326 323 315 310 309 309 311 315 321 324 328 331 330 327 327 328 330 332 334 336 335 331 329 330 333 341 342 330 321 321 319 311 302 299 299 298 294 286 280 273 266 263 263 264 265 264 261
253 255 259 262 266 268 264 262 269 281 294 299 288 283 293 290 280 287 303 316 325 326 323 325 328 328 328 327 323 319 318 322 324 321 317 320 324 326 329 332 330 324 318 313 310 310 313 318 322 328 332 331 328 328 330 332 333 334 337 336 332 330 332 335 342 344 333 325 323 320 315 311 308 305 301 296 290 282 273 265 259 258 260 263 265 263
259 257 262 266 269 270 263 257 264 283 297 300 291 287 291 290 290 300 309 313 318 320 317 319 323 323 323 323 321 318 317 319 321 320 318 319 319 321 324 326 326 324 320 316 312 309 309 312 315 322 330 331 328 328 330 333 333 334 336 337 333 331 333 337 341 343 336 328 323 322 322 319 316 310 302 300 299 290 277 265 257 256 258 261 265 267
262 259 264 270 271 268 261 261 274 288 293 295 294 293 293 294 297 302 305 308 313 314 308 309 314 314 312 312 311 311 313 315 314 313 312 311 310 311 312 313 314 315 313 310 308 305 306 307 306 310 321 327 326 325 328 331 332 332 334 337 335 332 333 336 339 341 337 328 323 324 325 323 321 316 306 305 312 302 294 286 274 266 262 262 264 265
268 271 273 275 274 273 274 279 284 288 289 289 290 291 292 294 298 302 304 306 309 305 302 308 312 310 306 305 305 305 307 308 306 305 305 305 304 306 306 305 306 308 307 304 301 301 302 300 297 299 309 319 320 321 324 327 329 329 331 334 336 333 331 333 337 338 334 328 325 327 326 324 325 322 313 312 317 301 295 293 289 279 268 263 264 265
275 279 280 280 279 280 284 288 290 290 289 287 287 287 288 292 297 300 300 300 299 298 302 309 313 312 308 305 304 304 305 306 306 306 306 306 306 307 307 305 303 303 303 301 297 295 294 292 291 293 298 305 312 315 319 322 325 326 327 330 334 333 329 328 333 336 331 324 324 329 329 328 332 331 325 321 310 286 283 291 300 288 263 240 250 261
279 280 279 280 282 283 288 295 298 296 294 290 288 286 288 292 295 294 290 290 291 296 304 311 316 317 313 306 304 304 306 310 313 314 314 313 313 314 313 310 305 301 299 297 294 291 289 289 289 290 290 293 300 306 310 314 319 322 323 325 329 331 327 324 328 333 328 317 313 323 329 333 338 337 328 317 290 258 264 284 320 158 149 132 139 164
284 283 281 282 285 286 290 298 300 298 296 293 291 290 292 293 291 283 280 284 290 297 306 315 320 320 316 310 307 309 314 318 319 318 317 316 316 317 315 311 306 299 293 291 290 289 287 286 286 285 285 285 289 294 300 306 312 316 319 320 324 328 327 322 323 328 325 315 309 316 325 330 337 337 325 308 266 234 228 199 130 129 127 123 128 133
282 284 286 287 288 289 295 303 302 297 296 296 294 293 294 292 286 279 279 284 290 299 308 316 322 322 318 317 319 322 324 324 320 316 314 314 315 316 313 309 305 299 294 291 288 287 286 285 283 283 283 283 284 286 291 297 302 307 312 315 318 323 325 322 319 319 320 317 313 314 321 320 321 327 324 306 256 216 197 173 148 137 132 130 131 132
282 286 287 286 285 289 298 303 298 295 297 298 295 293 292 289 284 280 280 283 290 299 307 314 320 320 315 318 324 325 324 323 319 316 314 314 314 313 310 307 302 298 295 291 287 287 288 285 282 280 280 280 280 282 286 291 292 296 303 308 312 317 321 321 318 314 313 314 313 312 316 314 304 305 314 303 259 216 192 177 164 152 144 142 142 140
283 284 283 282 285 291 297 297 294 296 299 299 297 295 291 287 282 278 278 282 290 299 306 311 316 318 316 318 322 321 319 318 318 316 315 314 313 310 308 304 300 296 293 289 287 287 287 284 281 280 280 280 278 279 283 286 285 288 295 300 304 310 313 316 317 313 310 309 308 306 311 314 303 293 291 286 261 225 200 188 179 168 160 156 155 152
Height
3147 3147 3148 3149 3149 3150 3150 3151 3151 3151 3151 3151 3151 3151 3152 3152 3152 3153 3153 3153 3153 3154 3154 3155 3155 3155 3156 3156 3157 3158 3159 3159 3159 3160 3160 3161 3161 3162 3163 3163 3163 3164 3164 3163 3164 3164 3164 3163 3163 3163 3162 3161 3160 3159 3158 3157 3157 3155 3154 3153 3151 3150 3148 3147 3146 3145 3144 3144 3143 3142 3141 3140 3140 3139 3138 3138 3138 3138 3138 3138 3138 3138 3138 3139 3139 3140
3148 3148 3149 3150 3150 3150 3151 3151 3151 3151 3151 3151 3152 3152 3152 3152 3152 3153 3153 3152 3152 3153 3154 3154 3154 3155 3156 3156 3157 3158 3158 3159 3159 3159 3160 3160 3161 3161 3162 3162 3163 3163 3162 3162 3163 3163 3163 3163 3162 3162 3161 3160 3159 3158 3157 3156 3155 3154 3153 3152 3150 3148 3146 3145 3144 3143 3142 3141 3140 3140 3139 3138 3137 3137 3136 3136 3136 3136 3136 3136 3136 3136 3136 3136 3137 3138
3148 3149 3150 3150 3151 3151 3151 3151 3152 3152 3152 3152 3152 3152 3152 3152 3152 3153 3153 3152 3152 3153 3153 3153 3153 3154 3154 3155 3156 3157 3157 3158 3158 3159 3159 3159 3160 3161 3161 3162 3162 3162 3161 3161 3162 3162 3162 3162 3161 3161 3160 3159 3158 3157 3156 3155 3153 3152 3151 3150 3148 3147 3145 3143 3142 3140 3139 3139 3138 3137 3137 3136 3135 3134 3134 3134 3134 3133 3133 3133 3133 3133 3133 3133 3134 3135
3149 3150 3150 3150 3151 3151 3151 3151 3152 3152 3152 3152 3152 3152 3152 3152 3152 3153 3153 3153 3153 3153 3152 3152 3152 3152 3153 3154 3155 3155 3156 3156 3157 3157 3158 3158 3159 3160 3160 3161 3161 3161 3160 3160 3161 3161 3161 3160 3160 3159 3159 3158 3157 3156 3155 3153 3152 3151 3150 3148 3146 3144 3143 3141 3140 3138 3137 3136 3136 3135 3135 3134 3133 3132 3132 3132 3132 3131 3131 3131 3130 3131 3131 3131 3131 3132
3150 3150 3151 3151 3151 3151 3151 3151 3151 3151 3151 3152 3152 3152 3152 3152 3152 3153 3153 3153 3152 3152 3151 3151 3152 3151 3151 3152 3153 3154 3154 3155 3156 3156 3156 3157 3158 3158 3159 3159 3160 3160 3159 3159 3160 3160 3159 3159 3158 3158 3157 3156 3155 3155 3154 3152 3151 3150 3149 3147 3145 3143 3141 3139 3138 3136 3135 3134 3134 3133 3132 3132 3131 3130 3130 3130 3129 3129 3128 3128 3128 3128 3128 3128 3128 3129
3150 3151 3151 3152 3152 3151 3151 3151 3151 3151 3151 3151 3151 3152 3152 3152 3152 3152 3152 3152 3151 3150 3150 3151 3151 3150 3150 3150 3151 3152 3152 3153 3154 3155 3155 3156 3157 3157 3158 3158 3159 3159 3159 3159 3159 3159 3158 3157 3157 3156 3155 3155 3154 3153 3152 3151 3150 3149 3148 3146 3144 3141 3139 3137 3135 3134 3133 3132 3132 3131 3131 3130 3129 3128 3128 3128 3128 3127 3126 3126 3125 3125 3126 3126 3126 3126
3151 3152 3152 3152 3152 3151 3151 3151 3151 3151 3151 3151 3151 3151 3151 3151 3151 3151 3151 3151 3150 3150 3149 3150 3150 3149 3148 3148 3149 3150 3150 3151 3152 3153 3153 3154 3155 3156 3157 3157 3157 3158 3158 3158 3158 3158 3157 3156 3156 3155 3154 3154 3153 3152 3151 3150 3149 3148 3146 3145 3142 3140 3138 3136 3134 3132 3131 3130 3129 3129 3129 3128 3127 3127 3126 3126 3126 3125 3124 3123 3123 3123 3123 3124 3124 3124
3152 3152 3152 3152 3152 3151 3151 3151 3151 3151 3151 3151 3151 3151 3151 3151 3151 3151 3150 3150 3150 3149 3149 3149 3149 3148 3147 3147 3147 3148 3149 3149 3150 3150 3150 3151 3154 3155 3155 3154 3155 3156 3157 3157 3156 3156 3156 3155 3155 3154 3153 3153 3152 3151 3150 3149 3148 3146 3145 3143 3141 3139 3137 3135 3133 3131 3129 3128 3127 3127 3126 3126 3126 3125 3124 3124 3123 3123 3122 3121 3121 3121 3121 3122 3122 3122
3152 3152 3152 3152 3151 3151 3151 3151 3151 3151 3151 3151 3151 3151 3151 3150 3150 3150 3150 3149 3149 3149 3149 3148 3149 3148 3145 3145 3145 3146 3147 3147 3147 3148 3149 3151 3153 3153 3153 3153 3153 3154 3155 3155 3155 3155 3154 3154 3154 3153 3152 3151 3150 3149 3148 3147 3146 3144 3143 3141 3139 3137 3135 3133 3131 3129 3127 3126 3125 3124 3124 3124 3124 3123 3123 3122 3122 3121 3120 3120 3119 3119 3119 3120 3120 3120
3152 3152 3152 3152 3151 3151 3151 3151 3151 3151 3151 3150 3150 3150 3150 3150 3149 3149 3149 3149 3148 3148 3148 3148 3148 3147 3144 3143 3144 3144 3145 3145 3145 3147 3149 3152 3152 3152 3152 3152 3152 3152 3153 3153 3153 3153 3153 3153 3152 3151 3151 3150 3149 3148 3147 3146 3144 3143 3141 3139 3137 3135 3133 3131 3129 3128 3126 3124 3123 3123 3122 3122 3122 3122 3121 3121 3120 3119 3119 3118 3117 3117 3118 3118 3118 3118
3152 3152 3152 3152 3152 3152 3152 3151 3151 3150 3150 3149 3149 3149 3149 3149 3148 3148 3148 3147 3148 3148 3148 3147 3147 3147 3145 3143 3143 3143 3144 3144 3146 3148 3150 3151 3151 3150 3150 3150 3150 3150 3151 3151 3151 3151 3151 3151 3150 3149 3149 3148 3147 3146 3145 3144 3143 3142 3140 3138 3135 3133 3131 3130 3128 3126 3124 3123 3122 3121 3121 3120 3120 3120 3120 3119 3118 3118 3117 3116 3116 3115 3115 3116 3115 3115
3152 3152 3152 3152 3152 3152 3152 3151 3151 3150 3149 3148 3148 3148 3148 3148 3148 3147 3147 3147 3148 3148 3148 3147 3147 3147 3145 3143 3143 3143 3143 3145 3147 3148 3149 3149 3149 3149 3148 3149 3149 3148 3148 3149 3149 3149 3149 3149 3148 3147 3147 3146 3146 3145 3144 3143 3142 3140 3139 3136 3134 3132 3130 3128 3126 3125 3123 3121 3120 3120 3119 3118 3118 3118 3118 3117 3117 3116 3115 3115 3114 3114 3113 3113 3113 3113
3152 3152 3152 3152 3152 3152 3151 3151 3150 3149 3148 3148 3147 3147 3147 3147 3148 3148 3148 3148 3148 3148 3148 3148 3147 3146 3145 3144 3143 3143 3143 3145 3146 3147 3148 3148 3148 3147 3147 3147 3147 3146 3147 3147 3147 3147 3147 3147 3146 3145 3145 3144 3144 3143 3143 3142 3141 3139 3137 3135 3133 3131 3129 3127 3125 3123 3121 3120 3119 3118 3118 3117 3116 3116 3116 3115 3115 3114 3113 3113 3112 3112 3112 3111 3111 3111
3152 3152 3152 3152 3152 3151 3151 3150 3150 3149 3148 3148 3147 3147 3147 3148 3150 3151 3151 3151 3149 3148 3148 3148 3147 3146 3145 3144 3143 3143 3144 3145 3146 3147 3147 3147 3147 3147 3146 3146 3145 3145 3145 3145 3146 3146 3146 3145 3145 3144 3143 3143 3142 3142 3141 3140 3139 3138 3136 3134 3132 3130 3127 3125 3123 3122 3120 3119 3118 3117 3116 3115 3115 3114 3114 3113 3113 3112 3112 3111 3110 3110 3110 3109 3109 3109
3152 3152 3152 3152 3152 3152 3151 3151 3150 3150 3149 3149 3148 3148 3148 3149 3150 3151 3151 3150 3149 3149 3148 3148 3147 3146 3145 3144 3144 3144 3144 3145 3146 3147 3147 3147 3146 3146 3145 3145 3144 3144 3144 3144 3144 3144 3144 3144 3143 3142 3142 3141 3141 3140 3140 3139 3138 3136 3134 3132 3130 3128 3126 3124 3122 3120 3119 3118 3117 3116 3115 3114 3113 3112 3112 3111 3111 3110 3110 3109 3109 3108 3108 3108 3107 3107
3153 3153 3152 3152 3152 3152 3152 3151 3151 3150 3149 3149 3149 3149 3149 3149 3149 3149 3150 3149 3149 3149 3148 3147 3147 3146 3146 3145 3145 3145 3145 3146 3146 3146 3146 3146 3146 3145 3145 3144 3143 3143 3143 3143 3143 3143 3143 3142 3141 3141 3140 3140 3140 3139 3139 3138 3136 3135 3133 3131 3129 3127 3125 3123 3121 3119 3117 3116 3115 3114 3113 3112 3111 3110 3110 3109 3109 3108 3108 3107 3107 3106 3106 3106 3105 3105
3153 3153 3153 3153 3152 3152 3152 3151 3151 3150 3150 3150 3150 3149 3149 3149 3149 3149 3149 3149 3150 3149 3148 3148 3147 3146 3146 3146 3145 3146 3146 3146 3147 3146 3146 3146 3145 3145 3144 3144 3143 3143 3142 3142 3142 3142 3141 3141 3140 3140 3139 3139 3138 3138 3138 3136 3135 3133 3132 3130 3128 3126 3123 3121 3119 3117 3116 3115 3113 3113 3112 3111 3110 3109 3108 3107 3107 3106 3106 3105 3104 3104 3104 3104 3103 3103
3153 3153 3153 3153 3153 3152 3152 3151 3151 3150 3150 3150 3150 3149 3149 3149 3149 3149 3149 3149 3150 3150 3148 3147 3147 3147 3147 3146 3146 3146 3146 3147 3147 3146 3146 3146 3145 3145 3144 3144 3143 3142 3142 3141 3141 3141 3140 3140 3139 3138 3138 3138 3137 3137 3136 3135 3133 3132 3131 3129 3127 3125 3122 3120 3118 3116 3114 3113 3112 3111 3110 3109 3108 3107 3106 3105 3105 3104 3103 3103 3102 3102 3101 3101 3101 3100
3153 3153 3152 3152 3152 3152 3152 3151 3151 3150 3150 3150 3149 3149 3149 3149 3149 3149 3149 3150 3150 3151 3150 3148 3147 3147 3146 3146 3146 3146 3146 3146 3146 3146 3146 3145 3145 3145 3144 3143 3143 3142 3141 3141 3140 3140 3139 3139 3138 3137 3137 3137 3136 3135 3134 3133 3132 3131 3129 3128 3125 3123 3121 3118 3116 3114 3113 3111 3109 3109 3108 3107 3106 3105 3104 3104 3103 3102 3101 3100 3100 3099 3099 3099 3099 3099
3153 3153 3152 3152 3152 3151 3151 3151 3151 3150 3150 3150 3149 3149 3149 3149 3149 3149 3149 3150 3150 3151 3151 3149 3147 3146 3146 3146 3146 3146 3146 3146 3146 3145 3145 3145 3145 3144 3144 3143 3142 3141 3140 3140 3139 3139 3138 3137 3137 3136 3136 3135 3135 3134 3133 3132 3130 3129 3128 3126 3124 3122 3119 3117 3115 3113 3111 3109 3108 3106 3106 3105 3104 3104 3103 3102 3101 3100 3099 3098 3098 3097 3097 3097 3097 3097
3154 3153 3152 3152 3151 3151 3151 3151 3151 3150 3150 3149 3149 3149 3149 3149 3149 3149 3149 3150 3149 3150 3152 3151 3148 3146 3145 3145 3145 3145 3145 3145 3145 3145 3145 3144 3144 3144 3143 3142 3141 3140 3140 3139 3138 3137 3137 3136 3136 3135 3135 3134 3133 3132 3131 3130 3129 3128 3127 3125 3123 3121 3118 3116 3113 3111 3109 3108 3106 3104 3103 3103 3102 3101 3101 3100 3099 3098 3097 3096 3096 3095 3095 3095 3095 3095
3153 3153 3152 3152 3151 3151 3151 3151 3150 3150 3150 3150 3149 3149 3149 3149 3149 3149 3149 3150 3150 3150 3151 3151 3148 3145 3145 3145 3144 3144 3145 3144 3144 3144 3144 3144 3143 3143 3142 3141 3140 3140 3139 3138 3137 3136 3136 3135 3135 3134 3133 3133 3132 3131 3130 3129 3128 3127 3126 3124 3122 3119 3117 3114 3112 3110 3108 3106 3104 3103 3102 3101 3100 3099 3099 3098 3097 3096 3095 3094 3094 3093 3093 3093 3093 3093
3153 3153 3152 3152 3151 3151 3151 3151 3151 3151 3150 3150 3150 3149 3149 3149 3149 3149 3149 3149 3149 3149 3149 3149 3147 3145 3144 3144 3144 3144 3144 3144 3143 3143 3143 3142 3142 3141 3141 3140 3139 3139 3138 3137 3136 3135 3135 3134 3134 3133 3132 3131 3130 3130 3129 3128 3127 3126 3124 3122 3120 3118 3115 3113 3111 3108 3106 3104 3103 3101 3100 3099 3098 3097 3097 3096 3095 3095 3094 3092 3092 3092 3092 3091 3092 3092
3153 3153 3152 3151 3151 3151 3151 3151 3151 3151 3150 3150 3150 3150 3149 3149 3149 3149 3149 3148 3148 3148 3147 3148 3147 3144 3143 3144 3144 3144 3143 3143 3142 3141 3141 3141 3140 3140 3139 3139 3138 3137 3137 3136 3135 3134 3134 3133 3133 3132 3131 3130 3129 3128 3127 3126 3125 3124 3122 3120 3118 3116 3113 3111 3109 3107 3105 3103 3101 3100 3098 3097 3096 3095 3094 3094 3093 3093 3092 3091 3090 3090 3090 3090 3090 3090
3153 3152 3152 3151 3151 3151 3151 3151 3151 3151 3151 3150 3150 3150 3149 3149 3148 3148 3148 3147 3147 3146 3146 3147 3145 3144 3143 3144 3143 3143 3142 3141 3140 3139 3139 3139 3139 3138 3138 3137 3137 3136 3135 3134 3134 3133 3133 3132 3131 3131 3130 3129 3128 3127 3126 3125 3123 3122 3120 3118 3116 3114 3112 3110 3108 3106 3103 3101 3099 3098 3097 3095 3094 3093 3092 3092 3091 3090 3090 3089 3089 3088 3089 3088 3088 3089
3153 3152 3152 3152 3152 3153 3153 3152 3152 3151 3151 3150 3150 3149 3149 3148 3148 3147 3147 3147 3146 3145 3145 3145 3143 3142 3143 3143 3142 3142 3140 3139 3138 3137 3137 3137 3136 3136 3136 3136 3135 3135 3134 3133 3132 3132 3131 3131 3130 3129 3128 3127 3126 3125 3124 3123 3121 3120 3118 3116 3114 3112 3110 3108 3106 3104 3102 3100 3098 3097 3095 3094 3092 3091 3091 3090 3089 3089 3088 3088 3087 3087 3087 3087 3087 3087
3152 3152 3152 3152 3152 3153 3152 3152 3151 3150 3150 3149 3149 3148 3148 3148 3147 3147 3146 3146 3145 3144 3143 3142 3141 3140 3141 3141 3141 3139 3138 3136 3136 3135 3134 3134 3134 3134 3134 3134 3134 3133 3132 3132 3131 3130 3130 3129 3128 3127 3126 3125 3124 3123 3122 3121 3119 3118 3116 3114 3112 3110 3108 3106 3104 3102 3100 3098 3097 3095 3093 3092 3091 3090 3089 3088 3087 3087 3087 3087 3086 3086 3086 3086 3086 3086
3152 3152 3152 3152 3152 3152 3151 3151 3150 3150 3149 3148 3148 3148 3147 3147 3146 3146 3145 3145 3144 3144 3141 3140 3140 3139 3138 3139 3138 3137 3136 3135 3134 3133 3133 3132 3133 3133 3133 3133 3132 3131 3131 3130 3130 3129 3128 3127 3126 3125 3124 3124 3122 3121 3120 3119 3118 3116 3114 3112 3110 3108 3106 3105 3103 3101 3099 3097 3095 3093 3092 3091 3089 3088 3087 3087 3086 3086 3086 3086 3086 3086 3085 3085 3085 3085
3152 3152 3152 3152 3152 3151 3151 3150 3150 3149 3148 3147 3147 3146 3146 3146 3145 3144 3144 3143 3143 3142 3140 3139 3139 3138 3137 3137 3136 3135 3134 3133 3133 3132 3132 3132 3132 3132 3131 3131 3130 3130 3129 3129 3128 3127 3126 3125 3124 3124 3123 3122 3121 3119 3118 3117 3115 3114 3111 3110 3108 3107 3105 3103 3101 3099 3097 3095 3094 3092 3091 3089 3088 3087 3086 3086 3086 3085 3085 3085 3085 3085 3085 3085 3085 3084
3152 3152 3152 3152 3152 3151 3150 3150 3149 3148 3147 3146 3146 3145 3144 3144 3144 3143 3143 3142 3141 3140 3139 3139 3138 3137 3136 3136 3135 3134 3133 3132 3132 3132 3131 3131 3131 3130 3130 3129 3129 3128 3127 3127 3126 3125 3124 3124 3123 3122 3121 3120 3119 3118 3116 3115 3113 3111 3109 3108 3106 3105 3103 3101 3099 3097 3096 3094 3093 3091 3090 3089 3088 3087 3086 3085 3085 3085 3085 3085 3085 3085 3084 3084 3084 3084
3152 3152 3152 3152 3151 3150 3150 3149 3148 3147 3146 3144 3144 3144 3143 3143 3143 3142 3141 3141 3140 3139 3138 3137 3136 3136 3135 3135 3134 3133 3132 3131 3131 3131 3130 3130 3129 3129 3128 3128 3127 3126 3125 3125 3124 3124 3123 3122 3121 3120 3119 3118 3117 3116 3114 3113 3111 3109 3108 3106 3105 3103 3101 3100 3098 3096 3094 3093 3092 3090 3089 3088 3087 3086 3086 3085 3085 3085 3085 3085 3085 3084 3084 3084 3084 3084
3151 3151 3151 3151 3151 3150 3149 3148 3147 3146 3145 3143 3143 3143 3143 3142 3142 3141 3141 3140 3139 3138 3137 3136 3136 3135 3135 3134 3133 3133 3132 3130 3130 3129 3129 3129 3128 3128 3127 3126 3125 3124 3124 3123 3122 3122 3121 3120 3119 3119 3117 3116 3115 3114 3113 3111 3109 3108 3106 3104 3103 3101 3100 3098 3096 3095 3093 3092 3091 3090 3089 3088 3087 3086 3086 3085 3085 3085 3085 3085 3084 3084 3084 3084 3083 3083
3151 3151 3151 3151 3150 3149 3149 3148 3147 3145 3144 3143 3142 3143 3142 3141 3141 3140 3140 3139 3138 3137 3136 3136 3135 3134 3134 3133 3132 3132 3131 3130 3129 3128 3128 3128 3127 3127 3126 3125 3124 3123 3122 3121 3120 3120 3119 3119 3118 3117 3116 3114 3113 3112 3111 3109 3108 3106 3105 3103 3101 3100 3098 3096 3095 3093 3092 3091 3090 3089 3088 3088 3087 3086 3085 3085 3085 3085 3085 3084 3084 3084 3084 3084 3083 3083
3150 3150 3150 3150 3149 3149 3148 3147 3146 3145 3144 3143 3142 3142 3141 3141 3140 3139 3139 3138 3137 3136 3135 3135 3134 3134 3133 3132 3131 3130 3130 3129 3128 3128 3127 3126 3126 3125 3124 3124 3123 3122 3121 3120 3119 3119 3118 3117 3116 3115 3114 3113 3111 3110 3109 3107 3106 3104 3103 3101 3100 3098 3096 3095 3093 3092 3091 3090 3089 3088 3088 3087 3086 3085 3085 3085 3084 3084 3084 3084 3084 3084 3083 3083 3083 3083
3149 3150 3150 3149 3149 3148 3147 3147 3146 3145 3144 3142 3142 3141 3140 3140 3139 3138 3138 3137 3136 3135 3134 3134 3133 3133 3132 3131 3130 3129 3129 3128 3128 3127 3127 3126 3125 3124 3123 3122 3121 3120 3120 3119 3118 3117 3116 3115 3114 3113 3112 3111 3109 3108 3107 3105 3104 3103 3102 3100 3098 3096 3095 3093 3092 3091 3090 3089 3088 3088 3087 3086 3085 3085 3084 3084 3084 3084 3084 3084 3083 3083 3083 3083 3083 3082
3149 3149 3149 3148 3148 3147 3147 3147 3146 3144 3142 3142 3141 3141 3140 3139 3138 3137 3137 3136 3136 3134 3133 3133 3132 3131 3130 3129 3128 3128 3127 3127 3127 3126 3125 3124 3123 3122 3121 3121 3120 3119 3118 3117 3116 3115 3114 3113 3112 3111 3110 3109 3107 3106 3105 3104 3103 3102 3100 3099 3097 3095 3093 3092 3090 3089 3088 3088 3087 3087 3086 3085 3085 3084 3084 3083 3083 3083 3083 3083 3083 3083 3082 3082 3082 3082
3148 3148 3148 3148 3147 3147 3146 3146 3144 3142 3141 3141 3140 3140 3139 3138 3138 3137 3136 3135 3134 3133 3132 3132 3131 3130 3129 3128 3127 3127 3126 3126 3126 3125 3124 3122 3122 3121 3120 3119 3119 3118 3117 3116 3115 3114 3113 3112 3111 3109 3108 3107 3106 3105 3104 3103 3102 3100 3099 3097 3095 3094 3092 3090 3089 3088 3087 3087 3086 3086 3085 3084 3084 3083 3083 3083 3082 3082 3082 3082 3082 3082 3082 3082 3081 3081
3147 3147 3147 3147 3146 3146 3145 3144 3143 3142 3141 3139 3139 3139 3138 3138 3137 3136 3135 3134 3133 3132 3131 3131 3129 3128 3127 3126 3126 3125 3125 3124 3124 3123 3122 3121 3120 3120 3119 3118 3117 3117 3116 3115 3114 3113 3111 3110 3109 3108 3107 3105 3104 3103 3102 3101 3100 3099 3097 3095 3094 3092 3091 3089 3088 3087 3086 3085 3085 3085 3084 3083 3083 3082 3082 3082 3081 3081 3081 3081 3081 3081 3081 3081 3081 3080
3146 3146 3146 3146 3145 3145 3144 3143 3143 3141 3139 3138 3138 3138 3137 3136 3136 3135 3134 3133 3132 3131 3130 3129 3128 3127 3126 3125 3125 3124 3123 3123 3122 3121 3120 3120 3119 3118 3117 3117 3116 3116 3115 3114 3113 3112 3110 3109 3108 3107 3105 3104 3103 3102 3101 3100 3099 3097 3096 3094 3093 3091 3090 3088 3087 3086 3085 3085 3084 3084 3083 3083 3082 3081 3081 3080 3080 3080 3080 3080 3080 3080 3079 3079 3079 3079
3144 3145 3144 3144 3144 3143 3143 3142 3141 3139 3137 3136 3137 3136 3136 3135 3134 3134 3133 3131 3130 3130 3128 3127 3127 3125 3124 3124 3123 3123 3122 3121 3120 3120 3119 3118 3117 3117 3116 3115 3115 3114 3113 3113 3112 3111 3109 3108 3107 3106 3104 3103 3102 3101 3100 3099 3098 3096 3095 3093 3092 3091 3089 3087 3086 3085 3085 3084 3084 3083 3083 3082 3081 3080 3080 3079 3079 3079 3079 3078 3078 3078 3078 3078 3078 3078
3143 3143 3143 3142 3142 3142 3141 3140 3138 3136 3135 3135 3135 3134 3134 3134 3133 3133 3131 3130 3129 3128 3127 3126 3125 3124 3123 3123 3122 3121 3121 3120 3119 3118 3117 3117 3116 3115 3115 3114 3113 3113 3112 3111 3110 3109 3108 3107 3106 3105 3103 3102 3101 3100 3099 3098 3096 3095 3094 3092 3091 3090 3088 3087 3085 3085 3084 3084 3083 3083 3082 3081 3080 3080 3079 3078 3078 3077 3077 3077 3077 3077 3077 3077 3077 3077
3141 3141 3140 3140 3140 3139 3139 3138 3136 3134 3132 3133 3133 3133 3133 3132 3131 3130 3129 3128 3128 3127 3126 3125 3124 3123 3122 3122 3121 3120 3120 3119 3118 3117 3116 3115 3115 3114 3113 3112 3112 3111 3110 3109 3109 3108 3107 3106 3105 3104 3103 3101 3100 3099 3098 3097 3095 3094 3093 3092 3090 3089 3088 3086 3085 3084 3083 3083 3083 3082 3081 3081 3080 3079 3078 3078 3077 3076 3076 3076 3076 3075 3075 3075 3076 3076
3139 3139 3138 3137 3138 3137 3136 3136 3135 3132 3131 3131 3131 3131 3131 3130 3129 3128 3127 3127 3126 3126 3125 3124 3123 3122 3121 3120 3120 3119 3118 3117 3116 3115 3115 3114 3113 3112 3112 3111 3110 3109 3108 3107 3107 3106 3105 3105 3104 3102 3101 3100 3099 3098 3097 3096 3094 3093 3092 3091 3090 3088 3087 3086 3085 3083 3083 3082 3082 3081 3081 3080 3079 3079 3078 3077 3076 3076 3075 3075 3074 3074 3074 3074 3074 3075
3137 3136 3135 3135 3135 3135 3134 3133 3132 3130 3129 3129 3129 3129 3129 3128 3127 3127 3126 3126 3125 3124 3123 3123 3122 3121 3120 3119 3118 3117 3116 3116 3115 3114 3113 3112 3111 3110 3109 3108 3107 3107 3106 3105 3104 3104 3103 3103 3102 3101 3100 3099 3098 3097 3096 3095 3093 3092 3091 3090 3089 3088 3086 3085 3084 3083 3082 3082 3082 3081 3081 3080 3079 3078 3077 3077 3076 3075 3075 3074 3074 3073 3073 3073 3073 3073
3134 3134 3133 3133 3133 3132 3131 3130 3129 3128 3128 3127 3127 3127 3126 3126 3125 3125 3124 3124 3123 3122 3122 3121 3120 3119 3118 3117 3116 3115 3114 3114 3113 3111 3111 3110 3109 3108 3107 3106 3105 3104 3103 3103 3102 3102 3101 3101 3100 3100 3099 3098 3097 3095 3095 3094 3092 3091 3090 3089 3088 3087 3086 3085 3084 3083 3082 3081 3081 3081 3080 3080 3079 3078 3077 3076 3075 3075 3074 3074 3074 3073 3073 3073 3073 3073
3132 3132 3131 3130 3130 3129 3128 3127 3127 3126 3126 3125 3124 3124 3124 3124 3123 3122 3122 3122 3121 3120 3120 3119 3118 3117 3116 3114 3113 3112 3112 3111 3110 3109 3108 3107 3106 3105 3104 3103 3102 3101 3101 3100 3100 3099 3099 3098 3098 3098 3097 3096 3095 3094 3093 3092 3091 3090 3089 3088 3087 3086 3085 3084 3083 3082 3082 3081 3080 3080 3080 3079 3079 3078 3077 3076 3075 3075 3074 3074 3073 3073 3073 3073 3072 3072
3130 3130 3129 3128 3127 3126 3125 3124 3124 3124 3123 3123 3122 3122 3122 3121 3121 3120 3120 3119 3119 3118 3118 3117 3115 3114 3113 3112 3111 3110 3109 3108 3107 3106 3105 3104 3103 3103 3102 3100 3100 3099 3098 3098 3097 3097 3096 3096 3096 3096 3095 3095 3094 3093 3092 3091 3090 3089 3088 3087 3086 3085 3084 3084 3083 3082 3081 3081 3080 3079 3079 3079 3078 3078 3077 3077 3076 3075 3074 3074 3074 3073 3073 3073 3073 3073
3127 3127 3126 3125 3124 3124 3122 3122 3122 3121 3120 3120 3120 3119 3119 3119 3118 3117 3117 3116 3116 3116 3115 3114 3113 3112 3110 3109 3108 3107 3107 3106 3105 3104 3102 3102 3101 3100 3099 3098 3097 3097 3096 3095 3095 3094 3094 3093 3093 3093 3093 3093 3092 3091 3090 3089 3088 3088 3087 3086 3085 3084 3083 3083 3082 3081 3080 3080 3079 3078 3078 3078 3078 3078 3077 3077 3076 3076 3075 3074 3074 3074 3073 3073 3073 3074
3125 3124 3123 3122 3121 3121 3120 3120 3120 3118 3117 3117 3117 3116 3116 3115 3115 3114 3114 3114 3113 3113 3112 3112 3111 3110 3108 3107 3106 3105 3104 3103 3102 3101 3100 3099 3098 3097 3096 3096 3095 3094 3094 3093 3092 3092 3091 3091 3091 3091 3090 3090 3090 3089 3088 3087 3087 3086 3085 3084 3084 3083 3082 3082 3081 3080 3079 3079 3078 3078 3077 3077 3078 3078 3077 3077 3077 3076 3075 3075 3075 3074 3074 3074 3075 3075
3122 3121 3121 3120 3118 3118 3118 3118 3117 3115 3115 3114 3114 3113 3113 3112 3112 3111 3111 3111 3111 3111 3110 3109 3109 3108 3107 3106 3104 3103 3102 3101 3100 3098 3097 3096 3095 3094 3094 3093 3092 3091 3091 3090 3089 3089 3089 3089 3088 3088 3088 3088 3088 3087 3086 3086 3085 3084 3084 3083 3082 3082 3081 3081 3080 3079 3079 3078 3078 3077 3076 3076 3077 3077 3077 3077 3077 3076 3076 3076 3075 3075 3075 3075 3076 3076
3120 3119 3118 3117 3115 3115 3115 3115 3114 3113 3112 3112 3111 3110 3110 3109 3109 3109 3109 3108 3108 3108 3107 3107 3106 3105 3104 3104 3102 3101 3099 3098 3097 3095 3094 3093 3092 3092 3091 3090 3089 3088 3088 3087 3086 3086 3086 3086 3085 3085 3085 3085 3085 3084 3084 3083 3083 3082 3082 3081 3081 3080 3080 3079 3079 3078 3078 3077 3077 3076 3075 3075 3076 3076 3076 3077 3077 3077 3076 3076 3076 3076 3076 3076 3076 3077